User: anonymous   Login
Location: *
(52.2090°N, 4.1550°W)
Time: 12:46:47
(UTC+00:00)
Language:

NOSS 2-3 (D) - Orbit

View from above orbital plane
View from above orbital plane
View from above satellite
View from above satellite

Ground track
Ground track

The orbit data is extracted from the following two-line orbital elements,

1 23862U 96029D   19241.81769786 0.00000000  00000-0  00000-0 0    09
2 23862  63.3624 147.2880 0676378  19.4851 340.5149 13.40864882    02
Epoch (UTC): 29 August 2019 19:37:29
Eccentricity: 0.0676378
inclination: 63.3624°
perigee height: 600 km
apogee height: 1612 km
right ascension of ascending node: 147.2880°
argument of perigee: 19.4851°
revolutions per day: 13.40864882
mean anomaly at epoch: 340.5149°
orbit number at epoch: 0

The dashed part of the orbit path shows where the satellite is in the earth's shadow,  

DLR